Weather Service Report


968 
ASUS43 KFSD 190310
RWRSD 

WEATHER ROUNDUP FOR SOUTH DAKOTA
NATIONAL WEATHER SERVICE SIOUX FALLS SD
1000 PM CDT FRI AUG 18 2017

NOTE: "FAIR" INDICATES FEW OR NO CLOUDS BELOW 12,000 FEET WITH NO
SIGNIFICANT WEATHER AND/OR OBSTRUCTIONS TO VISIBILITY.


SDZ001>005-009-010-012>017-190400-
NORTHWEST AND NORTH CENTRAL SOUTH DAKOTA
  
CITY           SKY/WX    TMP DP  RH WIND       PRES   REMARKS
BUFFALO          N/A     73  45  36 SE10      29.87S                  
FAITH            N/A     71  51  49 SE15      29.95R                  
MOBRIDGE       FAIR      64  58  80 E6        29.92R                  
$$
 
SDZ012>016-024>037-041>051-057-063-072>074-190400-
SOUTHWEST AND SOUTH CENTRAL SOUTH DAKOTA
  
CITY           SKY/WX    TMP DP  RH WIND       PRES   REMARKS
RAPID CTY ARPT FAIR      67  46  47 VRB3      29.98S                  
PIERRE         FAIR      66  52  60 E5        29.94R                  
CUSTER         FAIR      65  41  41 VRB5      30.14R                  
ELLSWORTH AFB  FAIR      72  46  38 SE6       29.98R                  
PHILIP         FAIR      69  52  54 E9        29.96R                  
PINE RIDGE     FAIR      64  55  72 E7        30.01R                  
SPEARFISH      FAIR      68  43  40 SE8       30.02R                  
WINNER         FAIR      68  59  73 SE8       29.99R                  
$$
 
SDZ004>011-016>023-039-040-190400-
NORTHEAST SOUTH DAKOTA
  
CITY           SKY/WX    TMP DP  RH WIND       PRES   REMARKS
ABERDEEN       FAIR      61  59  93 SE6       29.94R                  
WATERTOWN      FAIR      62  60  93 W5        29.96R                  
BROOKINGS      FAIR      61  59  93 NW7       29.96R                  
SISSETON         N/A     60  59  96 SW5       29.92R                  
$$
 
SDZ017-020-022-023-036>040-048>070-190400-
SOUTHEAST SOUTH DAKOTA
  
CITY           SKY/WX    TMP DP  RH WIND       PRES   REMARKS
SIOUX FALLS    FAIR      64  61  90 NW9       29.96R                  
HURON          FAIR      65  58  78 CALM      29.96R                  
CHAMBERLAIN    FAIR      64  60  88 E3        29.97S                  
MITCHELL       FAIR      64  60  87 W6        29.98R                  
YANKTON        FAIR      65  59  81 NW10      29.97R                  
$$
 
ABBREVIATIONS USED IN REMARKS
   TC - TEMPERATURE IN CELSIUS
  WCI - WIND CHILL INDEX
   HX - HEAT INDEX
  VSB - VISIBILITY

  


016 
ASUS43 KFSD 190310
RWRFSD

WEATHER ROUNDUP FOR SE SOUTH DAKOTA/SW MINNESOTA/NW IOWA
NATIONAL WEATHER SERVICE SIOUX FALLS SD
1000 PM CDT FRI AUG 18 2017

NOTE: "FAIR" INDICATES FEW OR NO CLOUDS BELOW 12,000 FEET WITH NO
SIGNIFICANT WEATHER AND OR OBSTRUCTIONS TO VISIBILITY.


SDZ038>040-050-052>070-190400-
SOUTHEAST SOUTH DAKOTA
  
CITY           SKY/WX    TMP DP  RH WIND       PRES   REMARKS
BROOKINGS      FAIR      61  59  93 NW7       29.96R                  
CHAMBERLAIN    FAIR      64  60  88 E3        29.97S                  
HURON          FAIR      65  58  78 CALM      29.96R                  
MADISON        FAIR      59  59 100 NW3       29.97R                  
MITCHELL       FAIR      64  60  87 W6        29.98R                  
SIOUX FALLS    FAIR      64  61  90 NW9       29.96R                  
WINNER         FAIR      68  59  73 SE8       29.99R                  
YANKTON        FAIR      65  59  81 NW10      29.97R                  
$$

MNZ071-072-080-081-089-090-097-098-190400-
SOUTHWEST MINNESOTA
  
CITY           SKY/WX    TMP DP  RH WIND       PRES   REMARKS
FAIRMONT       RAIN      60  59  96 S9        29.94F                  
JACKSON        TSTM      59  59 100 CALM      29.90S                  
LUVERNE        FAIR      64  59  82 CALM      29.95R                  
MARSHALL       FAIR      59  58  96 SW3       29.93R FOG              
MONTEVIDEO     FAIR      61  59  94 NW3       29.93R                  
PIPESTONE      FAIR      64  61  88 N3        29.95R                  
REDWOOD FALLS  FAIR      61  58  90 W7        29.92R                  
TRACY          FAIR      59  59  99 SW3       29.94R                  
WINDOM         FAIR      61  57  88 SE3       29.93S                  
WORTHINGTON    FAIR      61  59  93 CALM      29.94R                  
$$

IAZ001>003-012>014-020>022-031-032-NEZ013-014-SDZ071-190400-
NORTHWEST IOWA
  
CITY           SKY/WX    TMP DP  RH WIND       PRES   REMARKS
CHEROKEE       MOCLDY    72  63  73 N5        29.94R THUNDER          
DENISON        FAIR      68  66  94 E5        29.94R                  
ESTHERVILLE    TSTM      59  59 100 CALM      29.94F FOG              
LE MARS        MOCLDY    68  61  77 N7        29.94R                  
ORANGE CITY    FAIR      68  63  83 NW3       29.94R                  
SHELDON        FAIR      63  61  94 CALM      29.91S                  
SIOUX CITY     FAIR      74  62  66 NW16      29.93R                  
SPENCER        FAIR      65  62  90 NE7       29.93S                  
STORM LAKE     LGT RAIN  68  66  94 S5        29.94R                  
$$
 
ABBREVIATIONS USED IN REMARKS
   TC - TEMPERATURE IN CELSIUS
  WCI - WIND CHILL INDEX
   HX - HEAT INDEX
  VSB - VISIBILITY

  

Return to Home page


Western Regional Climate Center, wrcc@dri.edu